Hourly Weather Barrinha

Today, 19 April, Monday

Time Temperature Precipitation Wind Pressure Humidity
00:00 +19°C° 0 mm 2 mps 715 mmHg 94%
01:00 +19°C° 0 mm 2 mps 715 mmHg 95%
02:00 +18°C° 0 mm 2 mps 715 mmHg 96%
03:00 +18°C° 0 mm 2 mps 715 mmHg 97%
04:00 +17°C° 0 mm 2 mps 715 mmHg 97%
05:00 +17°C° 0 mm 2 mps 715 mmHg 97%
06:00 +18°C° 0 mm 1 mps 715 mmHg 97%
07:00 +18°C° 0 mm 2 mps 716 mmHg 90%
08:00 +20°C° 0 mm 2 mps 716 mmHg 83%
09:00 +22°C° 0 mm 3 mps 717 mmHg 76%
10:00 +25°C° 0 mm 3 mps 717 mmHg 65%
11:00 +27°C° 0 mm 2 mps 717 mmHg 55%
12:00 +30°C° 0 mm 2 mps 717 mmHg 44%
13:00 +30°C° 0 mm 3 mps 716 mmHg 41%
14:00 +30°C° 0 mm 3 mps 715 mmHg 39%
15:00 +32°C° 0 mm 4 mps 715 mmHg 36%
16:00 +29°C° 0 mm 4 mps 715 mmHg 45%
17:00 +27°C° 0 mm 4 mps 715 mmHg 53%
18:00 +25°C° 0 mm 4 mps 715 mmHg 61%
19:00 +22°C° 0 mm 4 mps 715 mmHg 65%
20:00 +21°C° 0 mm 3 mps 716 mmHg 70%
21:00 +20°C° 0 mm 3 mps 716 mmHg 74%
22:00 +20°C° 0 mm 3 mps 716 mmHg 76%
23:00 +19°C° 0 mm 3 mps 716 mmHg 78%

Tomorrow, 20 April, Tuesday

Time Temperature Precipitation Wind Pressure Humidity
00:00 +19°C° 0 mm 3 mps 716 mmHg 81%
01:00 +18°C° 0 mm 3 mps 716 mmHg 83%
02:00 +17°C° 0 mm 3 mps 716 mmHg 85%
03:00 +17°C° 0 mm 2 mps 715 mmHg 88%
04:00 +16°C° 0 mm 2 mps 715 mmHg 90%
05:00 +16°C° 0 mm 2 mps 715 mmHg 92%
06:00 +15°C° 0 mm 2 mps 716 mmHg 94%
07:00 +17°C° 0 mm 2 mps 716 mmHg 83%
08:00 +20°C° 0 mm 3 mps 717 mmHg 71%
09:00 +22°C° 0 mm 4 mps 717 mmHg 60%
10:00 +25°C° 0 mm 4 mps 717 mmHg 52%
11:00 +27°C° 0 mm 3 mps 717 mmHg 44%
12:00 +30°C° 0 mm 3 mps 717 mmHg 36%
13:00 +30°C° 0 mm 3 mps 716 mmHg 35%
14:00 +30°C° 0 mm 4 mps 716 mmHg 33%
15:00 +32°C° 0 mm 4 mps 715 mmHg 32%
16:00 +29°C° 0 mm 4 mps 715 mmHg 38%
17:00 +27°C° 0 mm 4 mps 715 mmHg 44%
18:00 +25°C° 0 mm 4 mps 715 mmHg 50%
19:00 +23°C° 0 mm 4 mps 716 mmHg 56%
20:00 +21°C° 0 mm 4 mps 716 mmHg 62%
21:00 +20°C° 0 mm 4 mps 716 mmHg 69%
22:00 +19°C° 0 mm 4 mps 716 mmHg 72%
23:00 +19°C° 0 mm 3 mps 716 mmHg 75%

Day after tomorrow, 21 April, Wednesday

Time Temperature Precipitation Wind Pressure Humidity
00:00 +18°C° 0 mm 3 mps 717 mmHg 78%
01:00 +17°C° 0 mm 3 mps 716 mmHg 83%
02:00 +16°C° 0 mm 3 mps 716 mmHg 87%
03:00 +15°C° 0 mm 2 mps 715 mmHg 92%
04:00 +15°C° 0 mm 2 mps 715 mmHg 94%
05:00 +14°C° 0 mm 2 mps 716 mmHg 95%
06:00 +14°C° 0 mm 2 mps 716 mmHg 97%
07:00 +16°C° 0 mm 2 mps 716 mmHg 84%
08:00 +19°C° 0 mm 3 mps 717 mmHg 72%
09:00 +21°C° 0 mm 3 mps 717 mmHg 60%
10:00 +25°C° 0 mm 3 mps 717 mmHg 51%
11:00 +27°C° 0 mm 3 mps 717 mmHg 43%
12:00 +29°C° 0 mm 2 mps 717 mmHg 34%
13:00 +30°C° 0 mm 2 mps 716 mmHg 32%
14:00 +31°C° 0 mm 3 mps 715 mmHg 30%
15:00 +31°C° 0 mm 3 mps 715 mmHg 28%
16:00 +29°C° 0 mm 3 mps 715 mmHg 34%
17:00 +27°C° 0 mm 3 mps 715 mmHg 40%
18:00 +25°C° 0 mm 3 mps 715 mmHg 47%
19:00 +24°C° 0 mm 3 mps 716 mmHg 53%
20:00 +21°C° 0 mm 3 mps 716 mmHg 60%
21:00 +20°C° 0 mm 3 mps 716 mmHg 67%
22:00 +19°C° 0 mm 3 mps 716 mmHg 73%
23:00 +18°C° 0 mm 2 mps 716 mmHg 78%

22 April, Thursday

Time Temperature Precipitation Wind Pressure Humidity
00:00 +17°C° 0 mm 2 mps 716 mmHg 84%
01:00 +16°C° 0 mm 2 mps 716 mmHg 87%
02:00 +15°C° 0 mm 2 mps 716 mmHg 91%
03:00 +15°C° 0 mm 2 mps 716 mmHg 94%
04:00 +14°C° 0 mm 2 mps 716 mmHg 95%
05:00 +14°C° 0 mm 2 mps 716 mmHg 96%
06:00 +14°C° 0 mm 2 mps 716 mmHg 96%
07:00 +16°C° 0 mm 2 mps 716 mmHg 85%
08:00 +19°C° 0 mm 2 mps 717 mmHg 74%
09:00 +21°C° 0 mm 2 mps 718 mmHg 62%
10:00 +25°C° 0 mm 2 mps 717 mmHg 52%
11:00 +28°C° 0 mm 1 mps 717 mmHg 42%
12:00 +31°C° 0 mm 1 mps 717 mmHg 32%
13:00 +32°C° 0 mm 1 mps 717 mmHg 29%
14:00 +32°C° 0 mm 2 mps 716 mmHg 26%
15:00 +32°C° 0 mm 2 mps 715 mmHg 23%
16:00 +29°C° 0 mm 2 mps 715 mmHg 28%
17:00 +27°C° 0 mm 2 mps 715 mmHg 33%
18:00 +24°C° 0 mm 2 mps 715 mmHg 39%
19:00 +23°C° 0 mm 2 mps 715 mmHg 48%
20:00 +20°C° 0 mm 2 mps 716 mmHg 57%
21:00 +18°C° 0 mm 2 mps 716 mmHg 67%
22:00 +18°C° 0 mm 2 mps 716 mmHg 71%
23:00 +17°C° 0 mm 2 mps 716 mmHg 76%

23 April, Friday

Time Temperature Precipitation Wind Pressure Humidity
00:00 +17°C° 0 mm 2 mps 716 mmHg 81%
01:00 +16°C° 0 mm 2 mps 716 mmHg 85%
02:00 +16°C° 0 mm 2 mps 716 mmHg 89%
03:00 +15°C° 0 mm 2 mps 716 mmHg 93%
04:00 +15°C° 0 mm 2 mps 716 mmHg 94%
05:00 +15°C° 0 mm 2 mps 716 mmHg 94%
06:00 +15°C° 0 mm 1 mps 716 mmHg 95%
07:00 +17°C° 0 mm 2 mps 717 mmHg 82%
08:00 +20°C° 0 mm 2 mps 717 mmHg 69%
09:00 +24°C° 0 mm 2 mps 718 mmHg 56%
10:00 +27°C° 0 mm 1 mps 718 mmHg 46%
11:00 +30°C° 0 mm 1 mps 718 mmHg 37%
12:00 +31°C° 0 mm 0 mps 717 mmHg 27%
13:00 +33°C° 0 mm 1 mps 717 mmHg 25%
14:00 +34°C° 0 mm 2 mps 716 mmHg 23%
15:00 +34°C° 0 mm 2 mps 715 mmHg 21%
16:00 +30°C° 0 mm 2 mps 715 mmHg 27%
17:00 +28°C° 0 mm 2 mps 715 mmHg 32%
18:00 +25°C° 0 mm 2 mps 715 mmHg 37%
19:00 +24°C° 0 mm 2 mps 715 mmHg 44%
20:00 +21°C° 0 mm 2 mps 715 mmHg 50%
21:00 +20°C° 0 mm 2 mps 715 mmHg 57%
22:00 +19°C° 0 mm 2 mps 715 mmHg 62%
23:00 +19°C° 0 mm 1 mps 715 mmHg 68%

24 April, Saturday

Time Temperature Precipitation Wind Pressure Humidity
00:00 +18°C° 0 mm 1 mps 715 mmHg 73%
01:00 +18°C° 0 mm 1 mps 715 mmHg 76%
02:00 +18°C° 0 mm 1 mps 715 mmHg 79%
03:00 +16°C° 0 mm 1 mps 714 mmHg 81%
04:00 +16°C° 0 mm 1 mps 714 mmHg 84%
05:00 +16°C° 0 mm 1 mps 715 mmHg 86%
06:00 +15°C° 0 mm 1 mps 715 mmHg 88%
07:00 +18°C° 0 mm 2 mps 715 mmHg 76%
08:00 +21°C° 0 mm 2 mps 716 mmHg 63%
09:00 +25°C° 0 mm 2 mps 716 mmHg 51%
10:00 +28°C° 0 mm 1 mps 716 mmHg 43%
11:00 +31°C° 0 mm 1 mps 716 mmHg 34%
12:00 +32°C° 0 mm 0 mps 716 mmHg 26%
13:00 +34°C° 0 mm 1 mps 715 mmHg 26%
14:00 +34°C° 0 mm 1 mps 715 mmHg 25%
15:00 +35°C° 0 mm 2 mps 714 mmHg 24%
16:00 +32°C° 0 mm 2 mps 714 mmHg 29%
17:00 +29°C° 0 mm 1 mps 714 mmHg 35%
18:00 +27°C° 0 mm 1 mps 713 mmHg 40%
19:00 +26°C° 0 mm 1 mps 714 mmHg 43%
20:00 +24°C° 0 mm 1 mps 714 mmHg 47%
21:00 +23°C° 0 mm 1 mps 714 mmHg 51%
22:00 +22°C° 0 mm 1 mps 714 mmHg 53%
23:00 +22°C° 0 mm 1 mps 714 mmHg 55%
Show more